Probability
0 0 0 0 0 0 0 0 0 0 0 0 0 0 0 13 10 55 61 68 81 81 77 77 77 77 71 77 68 74 71 65 71 77 74 68 68 81 81 77 71 74 77 81
0 0 0 0 0 0 0 0 0 0 0 0 0 0 0 10 3 39 61 77 74 84 77 74 71 65 68 71 65 71 74 74 71 81 77 71 74 77 81 81 81 81 68 74
0 0 0 0 0 0 0 0 0 0 0 0 0 0 3 3 10 19 45 74 74 81 74 65 68 65 68 65 65 65 71 74 81 77 71 61 71 74 71 74 81 81 71 65
0 0 0 0 0 0 0 0 0 0 0 0 0 0 6 3 13 23 35 74 71 74 77 68 65 68 65 61 71 77 77 77 81 84 74 58 61 61 71 77 77 81 71 58
0 0 0 0 0 0 0 0 0 0 0 0 0 0 0 13 13 16 32 58 68 65 74 71 68 71 68 61 65 74 81 81 87 81 84 74 65 58 58 74 81 71 74 58
0 0 0 0 0 0 0 0 0 0 0 0 0 0 6 0 6 16 32 48 74 68 77 71 77 77 74 65 71 74 81 84 87 81 81 81 71 68 68 68 68 68 74 68
0 0 0 0 0 0 0 0 0 0 0 0 0 0 10 10 3 19 35 55 74 77 74 74 71 81 77 71 71 68 81 81 87 81 81 81 71 68 65 61 68 61 58 58
0 0 0 0 0 0 0 0 0 0 0 0 0 0 13 6 16 29 35 52 68 71 68 68 65 68 74 71 71 68 74 81 81 77 81 84 84 65 65 55 61 58 61 52
0 0 0 0 0 0 0 0 0 0 0 0 0 6 16 13 16 23 32 52 61 77 81 68 65 68 71 71 74 74 74 81 77 84 84 81 77 71 71 74 55 52 77 65
0 0 0 0 0 0 0 0 0 0 0 0 0 0 10 19 29 26 52 55 77 77 81 74 71 68 71 74 74 74 77 84 84 81 81 58 71 71 68 65 61 71 77 71
0 0 0 0 0 0 0 0 0 0 0 0 0 0 6 23 39 42 52 55 77 77 74 77 77 77 74 74 74 74 74 84 81 77 74 81 71 74 65 71 74 71 74 68
0 0 0 0 0 0 0 0 0 0 10 3 0 0 6 26 26 35 45 65 68 74 81 77 74 74 77 74 71 71 71 77 77 74 71 74 74 71 61 68 71 65 65 61
0 0 0 0 0 0 0 0 0 0 0 0 0 0 13 16 26 35 55 77 71 77 77 84 77 81 74 74 68 68 74 77 74 81 77 77 77 74 71 61 65 65 61 58
0 0 0 0 0 0 0 0 0 0 0 0 0 3 16 19 32 42 61 74 81 84 84 81 87 87 81 77 74 71 68 71 71 77 77 74 74 68 71 68 61 58 58 52
0 0 0 0 0 0 0 0 0 0 0 0 0 0 16 23 42 61 65 74 77 81 81 84 87 87 81 81 74 71 74 77 81 81 74 68 68 65 65 55 48 45 39 39
0 0 0 0 0 0 0 0 0 0 0 0 0 6 16 29 45 65 71 74 74 87 84 77 84 87 84 81 77 81 74 71 74 68 68 61 58 52 52 42 39 39 35 35
0 0 0 0 0 0 0 0 0 0 0 0 0 3 19 35 52 61 71 74 74 77 81 84 84 87 84 81 84 84 74 71 71 68 58 52 45 39 35 35 39 32 29 23
0 6 6 0 0 0 0 0 3 6 0 3 10 26 35 42 55 65 68 81 77 81 77 87 81 77 84 84 84 74 77 65 61 52 48 42 35 32 32 32 29 26 26 19
0 23 0 0 0 0 0 0 0 6 13 19 26 35 42 45 52 61 58 71 74 74 81 81 84 84 84 81 77 71 68 58 45 48 42 32 32 32 32 26 23 19 19 16
0 13 0 0 0 0 0 0 0 0 13 26 35 52 52 45 55 61 58 58 52 58 61 68 68 71 77 74 71 61 58 55 52 52 39 32 32 29 19 19 19 16 13 10
0 0 0 0 0 0 0 0 3 3 19 35 35 48 52 65 68 65 58 48 48 52 55 48 52 58 61 61 58 52 48 39 42 42 35 29 29 23 19 16 16 16 10 3
0 0 0 0 0 0 0 0 10 42 52 39 45 42 52 58 48 45 45 42 39 39 42 39 45 48 52 52 52 45 39 39 35 32 29 26 16 16 13 13 10 6 3 3
0 0 0 0 0 29 26 35 32 32 35 39 39 42 45 39 32 35 29 35 29 26 35 32 39 42 42 48 45 39 39 32 29 26 19 13 10 6 6 6 3 3 3 3
0 3 10 16 23 23 23 19 19 16 23 32 32 35 39 35 29 26 23 29 29 26 26 29 39 42 32 26 23 29 23 19 19 16 16 10 10 6 3 3 3 0 0 0
0 0 3 10 19 19 19 23 16 10 13 26 29 26 29 29 32 23 19 19 23 23 26 23 32 26 16 16 16 16 19 16 13 10 6 6 3 0 0 0 0 0 0 0
0 0 0 3 13 16 19 13 10 13 19 16 16 19 26 29 23 19 13 13 16 16 23 29 26 19 19 16 16 16 13 10 10 6 6 3 0 0 0 0 0 0 0 0
Height
5880 5883 5884 5885 5887 5889 5890 5892 5893 5893 5893 5891 5890 5889 5887 5884 5883 5880 5878 5875 5873 5871 5868 5866 5863 5861 5858 5856 5855 5855 5854 5856 5857 5858 5860 5862 5864 5866 5868 5870 5873 5875 5877 5880
5877 5879 5881 5882 5884 5886 5887 5888 5890 5891 5890 5889 5887 5886 5885 5882 5880 5878 5876 5874 5872 5869 5867 5864 5862 5860 5858 5856 5855 5854 5854 5856 5857 5858 5859 5861 5863 5864 5866 5869 5871 5874 5876 5878
5874 5877 5877 5879 5881 5882 5884 5885 5887 5887 5887 5886 5885 5884 5883 5880 5877 5875 5874 5872 5870 5867 5865 5863 5861 5859 5857 5855 5854 5854 5854 5855 5856 5856 5858 5860 5861 5863 5865 5867 5870 5872 5874 5876
5869 5872 5874 5876 5877 5879 5880 5882 5883 5884 5884 5883 5884 5883 5881 5878 5874 5872 5872 5870 5868 5866 5863 5861 5859 5857 5856 5855 5854 5854 5854 5855 5855 5856 5857 5859 5860 5862 5864 5866 5868 5870 5873 5875
5865 5868 5869 5871 5874 5875 5877 5879 5880 5880 5880 5880 5880 5881 5879 5875 5872 5870 5870 5868 5866 5865 5862 5860 5858 5857 5856 5855 5854 5853 5853 5854 5855 5855 5856 5858 5859 5861 5863 5865 5867 5869 5871 5873
5861 5863 5865 5867 5870 5871 5873 5875 5875 5876 5876 5877 5878 5878 5877 5874 5872 5870 5869 5867 5865 5863 5861 5859 5857 5856 5855 5854 5854 5853 5853 5853 5854 5855 5856 5857 5858 5860 5862 5863 5865 5867 5869 5871
5856 5858 5861 5863 5865 5868 5870 5872 5873 5873 5874 5874 5874 5874 5874 5872 5871 5869 5867 5865 5864 5862 5860 5858 5857 5856 5855 5854 5853 5853 5853 5853 5854 5854 5855 5856 5857 5859 5860 5862 5864 5866 5868 5869
5851 5854 5857 5859 5861 5863 5866 5868 5871 5872 5872 5870 5870 5871 5871 5869 5868 5867 5866 5863 5862 5860 5859 5857 5856 5855 5854 5853 5853 5853 5853 5853 5853 5854 5854 5855 5856 5857 5859 5860 5862 5864 5866 5868
5849 5852 5853 5854 5856 5859 5862 5864 5868 5869 5869 5869 5869 5869 5867 5866 5865 5864 5863 5862 5860 5859 5858 5856 5856 5855 5854 5853 5852 5852 5853 5853 5853 5853 5854 5855 5856 5857 5858 5859 5861 5862 5864 5866
5844 5848 5851 5851 5852 5854 5857 5861 5863 5865 5866 5868 5868 5865 5863 5862 5862 5862 5861 5860 5859 5858 5857 5856 5855 5854 5853 5853 5852 5852 5852 5853 5853 5853 5853 5854 5855 5856 5857 5858 5859 5860 5862 5863
5838 5842 5846 5848 5848 5851 5853 5856 5858 5861 5863 5865 5865 5865 5859 5857 5859 5860 5858 5858 5857 5857 5856 5855 5855 5854 5853 5853 5852 5852 5852 5852 5852 5852 5853 5854 5854 5855 5856 5856 5857 5858 5859 5860
5833 5837 5840 5844 5845 5846 5849 5851 5854 5856 5858 5860 5861 5861 5856 5855 5856 5857 5856 5855 5855 5855 5855 5854 5854 5854 5853 5853 5852 5852 5852 5852 5852 5852 5852 5853 5853 5854 5854 5854 5854 5855 5856 5857
5827 5831 5835 5839 5843 5844 5845 5847 5849 5852 5854 5856 5857 5858 5853 5852 5853 5854 5854 5854 5853 5853 5853 5853 5853 5852 5852 5852 5852 5852 5851 5851 5851 5851 5851 5851 5851 5852 5852 5852 5852 5852 5853 5854
5820 5824 5830 5835 5838 5840 5841 5844 5846 5848 5850 5853 5853 5852 5851 5850 5850 5850 5851 5851 5851 5852 5852 5851 5851 5851 5850 5850 5850 5850 5850 5850 5850 5849 5849 5849 5849 5849 5849 5849 5850 5850 5850 5851
5814 5818 5823 5827 5832 5835 5837 5839 5842 5844 5846 5848 5849 5848 5847 5847 5847 5846 5847 5849 5849 5850 5849 5849 5849 5849 5849 5849 5849 5848 5848 5848 5848 5848 5847 5847 5846 5846 5846 5847 5847 5847 5847 5847
5807 5812 5817 5821 5826 5829 5832 5835 5838 5840 5842 5843 5843 5841 5841 5841 5841 5842 5842 5845 5845 5847 5847 5847 5847 5847 5847 5846 5846 5846 5846 5846 5846 5845 5845 5844 5843 5843 5843 5843 5843 5843 5843 5843
5801 5806 5811 5815 5820 5823 5826 5830 5833 5836 5837 5839 5839 5837 5836 5837 5838 5838 5839 5841 5842 5843 5843 5843 5844 5844 5844 5844 5844 5844 5843 5843 5843 5842 5842 5841 5840 5840 5840 5840 5840 5839 5839 5839
5795 5799 5804 5810 5814 5817 5823 5826 5828 5830 5831 5833 5831 5831 5832 5833 5833 5834 5835 5837 5838 5839 5839 5839 5840 5840 5840 5840 5840 5840 5840 5840 5839 5839 5838 5838 5837 5836 5836 5835 5835 5835 5835 5835
5788 5793 5798 5803 5807 5811 5816 5819 5822 5824 5825 5826 5826 5826 5828 5828 5828 5829 5830 5832 5833 5833 5833 5834 5835 5836 5836 5836 5836 5836 5836 5836 5836 5835 5835 5834 5833 5833 5832 5832 5831 5831 5830 5830
5781 5785 5791 5796 5800 5804 5809 5811 5814 5818 5817 5818 5819 5820 5822 5824 5824 5825 5826 5826 5828 5829 5828 5829 5830 5830 5831 5831 5831 5831 5831 5831 5831 5831 5830 5830 5829 5828 5828 5827 5827 5826 5825 5825
5774 5778 5783 5788 5793 5796 5799 5802 5806 5810 5810 5811 5812 5813 5815 5818 5818 5819 5820 5821 5822 5823 5823 5824 5824 5825 5825 5826 5826 5826 5826 5826 5826 5825 5825 5825 5824 5824 5823 5822 5821 5821 5820 5819
5767 5772 5776 5781 5786 5790 5791 5794 5796 5798 5801 5803 5805 5807 5809 5810 5810 5812 5813 5815 5816 5816 5817 5817 5818 5819 5819 5819 5820 5820 5820 5820 5820 5820 5819 5819 5819 5818 5817 5817 5816 5815 5815 5814
5759 5764 5769 5773 5777 5779 5782 5785 5787 5790 5793 5796 5798 5800 5801 5802 5803 5805 5807 5808 5809 5810 5810 5811 5812 5812 5813 5813 5813 5813 5814 5814 5814 5814 5813 5813 5812 5812 5811 5811 5810 5809 5808 5807
5750 5753 5758 5762 5766 5770 5773 5777 5781 5784 5786 5788 5790 5791 5793 5794 5796 5798 5800 5801 5802 5803 5804 5804 5805 5806 5806 5806 5807 5807 5807 5807 5807 5807 5807 5806 5806 5805 5804 5804 5803 5802 5801 5800
5740 5745 5750 5754 5758 5762 5766 5770 5773 5775 5778 5781 5782 5784 5786 5788 5790 5791 5792 5793 5794 5795 5796 5797 5798 5798 5799 5799 5799 5800 5800 5800 5800 5800 5800 5799 5798 5798 5797 5796 5796 5795 5794 5793
5734 5738 5742 5745 5750 5754 5757 5761 5764 5766 5770 5772 5774 5775 5778 5781 5782 5784 5785 5786 5787 5788 5788 5789 5790 5791 5792 5792 5792 5793 5793 5793 5793 5793 5792 5792 5791 5791 5790 5789 5788 5787 5786 5785
Wind_Speed
15 15 13 11 11 10 10 10 10 11 12 14 13 12 14 15 16 18 19 19 18 18 18 17 16 15 14 11 8 6 5 5 6 8 8 10 10 10 11 12 12 13 12 11
17 15 14 14 14 14 13 12 11 12 13 15 13 12 14 17 15 17 19 18 18 18 16 15 15 14 12 10 8 6 3 4 5 7 8 10 11 10 11 11 12 13 12 12
18 15 17 17 16 15 14 14 12 12 13 14 13 13 15 19 16 16 18 17 18 18 16 15 15 14 11 9 7 5 3 3 5 6 8 9 10 10 10 11 12 12 12 13
19 18 20 18 17 16 15 14 14 14 15 13 12 13 16 18 17 15 16 18 18 17 16 15 13 11 9 8 6 5 4 3 4 5 6 8 9 10 11 10 11 11 12 13
20 20 21 20 18 17 16 14 15 16 15 13 11 12 15 17 17 15 16 18 17 16 16 14 11 9 8 7 6 5 3 3 3 3 5 8 9 10 10 10 11 12 13 13
21 21 21 20 19 19 17 16 16 14 13 13 12 12 14 16 17 17 18 17 17 16 14 11 9 8 8 6 5 5 4 3 2 3 4 6 8 9 10 10 11 12 12 13
22 22 22 21 20 19 18 16 14 13 12 13 11 11 15 17 18 18 18 17 15 15 12 9 8 8 7 7 6 4 4 3 2 3 5 6 7 8 9 10 11 12 12 13
21 21 21 21 20 18 18 16 14 12 13 13 11 10 16 17 19 18 17 16 15 13 10 8 7 7 7 7 6 4 4 4 3 3 4 5 6 6 7 9 10 12 12 12
17 17 18 21 20 20 18 18 15 15 14 13 10 11 17 18 18 18 16 14 14 11 9 7 7 7 7 7 5 4 4 3 3 3 4 5 5 5 6 8 9 11 12 13
20 17 17 20 20 19 19 17 17 18 17 15 14 16 18 19 14 16 15 14 13 11 9 8 8 7 7 5 4 4 4 4 4 4 4 5 6 6 7 8 10 11 12 13
24 22 18 20 21 18 19 20 19 18 17 15 16 18 19 15 13 15 15 14 13 11 10 9 8 7 7 6 4 4 4 4 4 5 5 5 6 7 8 9 10 12 13 13
26 24 22 21 20 19 19 19 20 20 20 19 18 19 16 15 15 15 15 14 14 11 10 9 8 7 7 7 6 6 5 5 5 6 7 7 7 8 9 10 11 12 14 14
27 28 26 22 19 19 19 19 20 20 19 18 18 21 18 18 16 15 16 16 15 13 12 11 10 9 9 9 8 8 7 7 7 8 8 9 10 10 11 11 11 11 13 14
30 30 28 23 20 18 18 18 19 20 20 19 20 22 20 19 18 17 16 16 16 15 14 13 12 12 11 11 11 10 10 9 9 9 10 11 11 11 11 11 11 12 13 14
31 30 29 27 22 18 17 17 19 21 21 21 21 23 23 23 22 19 17 17 17 16 15 15 14 13 13 13 12 12 11 11 11 11 12 12 12 12 12 12 13 13 14 15
31 31 29 29 27 21 19 19 18 20 21 22 22 25 24 24 21 20 19 18 17 18 17 16 15 15 14 14 14 13 13 13 12 13 13 13 13 13 13 13 13 14 14 15
30 31 32 29 28 24 24 22 20 20 21 22 24 26 23 24 25 22 22 21 20 20 20 19 17 16 16 16 15 15 15 15 14 14 14 14 14 14 14 14 15 15 16 17
33 33 33 31 27 27 24 23 23 23 23 23 26 27 26 26 26 25 24 23 23 22 22 21 19 18 18 18 17 17 17 17 17 17 17 16 16 15 16 15 16 17 18 18
34 34 34 32 29 29 26 25 25 26 27 28 30 30 29 28 28 28 27 25 23 23 23 22 22 21 20 20 20 20 20 20 19 19 19 18 17 17 17 17 18 19 19 19
36 36 35 34 31 28 28 29 28 27 29 31 32 32 32 31 31 30 28 26 25 24 23 23 24 23 23 23 22 21 21 21 21 21 20 20 19 19 19 19 19 20 21 21
38 37 36 35 33 31 31 31 31 32 34 34 33 33 32 32 32 31 29 28 27 26 25 25 25 25 25 25 24 23 22 23 23 22 22 22 21 21 21 22 22 21 22 22
36 37 38 37 35 35 34 32 33 34 33 34 32 32 32 33 32 31 30 29 28 27 27 26 26 25 26 26 26 25 25 25 25 25 25 24 24 24 23 23 23 23 23 23
34 35 36 38 40 40 38 38 37 36 35 35 34 33 33 33 31 31 31 29 28 28 27 27 27 26 26 26 26 26 26 26 26 26 27 27 26 25 25 25 25 25 25 26
38 38 38 39 39 41 42 40 38 37 36 35 35 34 34 34 32 32 31 31 30 29 28 28 28 28 27 27 27 26 27 27 27 27 27 27 28 27 27 26 26 27 27 27
38 37 38 39 41 41 41 40 38 37 37 37 36 36 35 34 34 33 32 31 30 30 29 29 28 27 27 27 27 27 27 28 28 28 28 28 28 28 27 27 27 28 28 28
37 37 39 41 40 39 39 38 37 35 35 35 35 34 34 34 34 33 32 31 31 30 30 29 28 27 26 27 28 28 28 28 28 28 27 27 26 27 27 27 28 28 28 28
Wind_Direction
252 254 257 257 260 254 252 252 252 260 264 273 282 286 285 285 295 305 312 315 318 319 321 324 327 330 329 329 321 301 286 278 260 243 233 223 221 220 215 214 214 213 215 218
253 255 256 249 250 252 251 254 255 263 266 274 280 284 283 284 291 305 311 314 317 318 322 324 327 328 330 328 320 304 297 280 265 240 231 221 219 219 213 213 213 215 218 219
253 251 252 252 252 253 254 259 258 261 267 276 285 290 287 288 292 305 311 312 313 317 320 322 322 323 328 328 323 319 300 294 278 241 229 221 222 216 216 217 216 215 218 217
250 246 251 253 252 253 256 262 262 260 264 270 279 287 289 289 298 300 307 310 314 319 319 319 320 321 326 327 320 310 294 286 282 243 229 224 223 221 219 219 216 216 216 217
250 248 249 250 250 250 250 252 259 262 264 264 264 272 280 287 295 302 304 308 312 317 318 317 316 316 319 323 318 311 303 287 277 244 226 225 223 224 224 223 222 220 219 222
246 247 250 249 248 250 251 252 259 263 264 267 264 256 268 279 289 297 301 304 310 315 318 316 315 313 316 317 316 306 298 286 266 240 227 226 229 226 226 224 223 219 219 223
248 245 247 249 248 248 248 250 256 265 272 273 261 253 258 272 284 289 293 299 306 311 314 314 317 316 311 314 318 305 294 285 266 248 235 234 233 227 224 223 221 221 222 223
247 249 247 247 248 243 246 244 244 249 272 281 262 250 259 277 285 290 292 296 302 307 309 311 317 317 314 310 309 300 301 288 272 259 247 238 231 228 224 221 223 225 225 227
236 255 253 249 247 238 235 241 235 238 253 278 278 252 262 275 285 292 292 295 301 306 303 303 314 314 317 309 304 300 301 295 266 253 252 246 238 233 226 224 226 228 230 232
218 228 244 250 248 239 227 230 230 229 238 249 261 262 265 274 282 291 295 295 297 301 303 305 312 314 315 315 309 305 305 294 282 266 255 249 242 239 237 235 236 236 237 239
220 222 227 240 246 240 232 224 226 230 230 239 255 261 263 267 283 291 290 289 290 293 300 299 305 309 310 309 310 308 312 310 297 280 269 257 251 251 254 249 248 247 247 248
223 223 221 232 245 242 234 231 228 229 229 227 247 264 265 269 277 285 288 286 288 285 291 295 298 298 298 303 302 296 303 306 298 289 281 273 266 265 268 262 258 256 254 255
222 221 218 221 234 241 237 233 228 228 230 228 238 258 265 271 269 275 283 285 287 287 288 287 290 293 290 291 295 293 292 293 293 294 291 283 278 276 275 270 269 265 260 260
218 220 216 216 226 238 245 236 228 225 226 230 236 250 259 266 270 272 274 277 278 284 284 283 282 284 287 289 289 289 288 291 295 296 293 290 283 277 276 272 272 271 268 267
221 221 216 210 212 226 237 236 231 230 225 230 236 244 250 258 264 265 263 270 275 278 279 280 281 281 284 286 288 288 289 292 293 295 295 292 288 282 276 273 274 272 270 271
222 219 215 213 211 218 226 229 230 232 229 232 241 245 245 250 253 262 266 272 276 276 275 277 278 278 281 284 286 286 287 292 294 296 297 295 290 284 279 275 278 275 274 276
223 220 217 215 216 221 225 219 222 230 233 233 240 246 244 248 258 264 267 272 274 274 273 274 275 275 277 279 280 282 284 288 290 293 295 294 291 287 283 281 281 280 278 278
223 221 219 217 218 224 224 223 224 229 233 232 237 246 252 256 259 265 269 272 271 269 270 271 273 274 275 275 277 280 280 283 285 287 291 293 293 289 288 285 284 283 282 281
224 224 222 218 221 225 224 225 226 231 230 232 239 246 249 254 258 262 267 270 271 269 267 268 270 272 273 274 275 277 277 278 281 283 286 290 290 289 288 287 285 283 283 282
224 226 225 222 222 226 225 227 226 230 231 234 239 244 247 252 257 261 263 266 268 269 269 270 269 270 271 272 273 275 276 275 278 280 282 285 288 287 287 287 287 287 285 284
225 227 226 225 226 230 229 229 227 227 233 238 242 245 249 250 256 259 262 265 267 269 270 271 271 272 271 271 270 272 275 275 277 278 280 283 285 285 286 287 287 287 288 286
230 230 230 227 226 231 233 235 233 232 235 240 244 247 249 254 255 258 261 263 265 267 269 270 271 272 272 272 271 272 274 275 276 277 278 281 282 283 285 286 286 287 288 288
224 227 230 231 229 230 233 236 238 239 239 242 244 248 250 253 256 259 262 263 264 266 268 269 270 271 272 272 270 271 271 273 275 276 277 279 282 284 284 284 286 287 287 287
219 223 225 228 230 232 233 236 241 243 242 244 248 252 253 255 259 260 261 262 263 264 267 270 271 271 270 270 270 270 271 273 275 276 278 279 280 282 282 281 283 285 286 287
219 221 225 229 233 235 237 239 242 244 245 247 251 252 255 258 260 261 262 262 262 264 266 268 270 270 270 268 268 270 270 271 274 275 277 278 278 278 279 282 284 285 286 286
222 224 226 229 233 235 238 241 241 243 245 248 253 254 256 258 259 261 262 262 262 263 265 267 268 267 266 267 268 269 271 272 273 276 277 276 278 279 280 282 284 286 286 286